Location: McFarlands Corners
(41.4117°N, 81.3382°W)
Time: 04:59:03
(UTC+00:00)

Transit 4A - Pass Details

Date: 23 February 2026
Orbit: 864 x 977 km, 66.8° (Epoch: 5 March)

Event Time Altitude Azimuth Distance (km) Brightness Sun altitude
Rises 08:00:16 0° 212° (SSW) 3,445 - -45.6°
Reaches altitude 10° 08:02:43 10° 214° (SW) 2,520 - -45.3°
Maximum altitude 08:08:33 77° 300° (WNW) 917 - -44.3°
Exits shadow 08:13:30 16° 26° (NNE) 2,205 10.3 -43.6°
Drops below altitude 10° 08:14:35 10° 27° (NNE) 2,603 10.7 -43.4°
Sets 08:17:09 0° 29° (NNE) 3,566 11.6 -43.0°
